Погода в Актанышбаше

Россия / Республика Татарстан     55°43′11″N   54°01′58″E
темп.,
°C
ветер,
м/с
пор.,
м/с
влажн.,
%
обл.,
%
осадки,
мм/ч
давл.,
гПа
погр.,
м
6 марта, сб
сб600:00−14зюз46959 0.0 100886
03:00−14юз499532 0.0 1010147
06:00−14юз489679 0.0 1010140
09:00−11зюз589488 0.3 1011407
12:00−9з459099 0.1 1011515
15:00−8зсз349099 0.2 1011497
18:00−13з339295 0.1 101232
21:00−17з349365 0.1 101336
7 марта, вс
вс700:00−19з239810 0.0 101320
03:00−18юз229848 0.1 101320
06:00−19юз239998 0.1 101220
09:00−16зюз239491 0.1 1011169
12:00−13з238994 0.0 1010346
15:00−12зюз239197 0.1 1009362
18:00−16ю239678 0.0 100920
21:00−16ю349759 0.0 100951
8 марта, пн
пн800:00−15ю4119496 0.0 1007214
03:00−13ю6129598 0.2 1004356
06:00−11ю71393100 1.2 1000613
09:00−6ююз81491100 1.6 999895
12:00−5зюз6107968 0.1 1000859
15:00−5юз498445 0.1 1001551
18:00−9ю458649 0.0 100081
21:00−6ююв5129475 0.8 998593
9 марта, вт
вт900:00−3ю81595100 1.0 994856
03:00−10юз8169097 1.8 993864
06:00−7зюз111790100 0.9 996923
09:00−8зюз81389100 1.1 1000800
12:00−8зюз81288100 0.1 1004734
15:00−8зюз71088100 0.2 1006778
18:00−11зюз4994100 0.1 1008279
21:00−13зюз489599 0.2 1010206
10 марта, ср
ср1000:00−17зюз349785 0.0 101064
03:00−18зюз349783 0.1 101177
06:00−17зюз359798 0.1 1011116
09:00−14з359498 0.2 1012283
12:00−13сз4591100 0.1 1012477
15:00−14сз4691100 0.2 1013449
18:00−16ссз3594100 0.1 1014133
21:00−18ссз239799 0.1 101680